This demonstration page uses our WeatherBlox Daily Observations layout. Learn more.

Left ArrowRight Arrow

44.89941, -97.11507

Hourly Observations for July 31, 2016

Temp ( °F °C ) Dew Point ( °F °C ) Humidity (%) Winds ( mph kmh ) Pressure ( in mb ) Visibility ( mi km ) Precip ( " mm )
12:53 am 00:53 Clear 67 19.4 58 14.4 73 73 SE 7 11 29.91 1013 10 16 0.00 0.00
1:53 am 01:53 Clear 66 18.9 57 13.9 73 73 SSE 12 19 29.90 1013 10 16 0.00 0.00
2:53 am 02:53 Clear 65 18.3 57 13.9 76 76 SSE 12 19 29.89 1012 10 16 0.00 0.00
3:53 am 03:53 Clear 64 17.8 58 14.4 81 81 SSE 10 17 29.88 1012 10 16 0.00 0.00
4:53 am 04:53 Clear 64 17.8 59 15 84 84 SSE 9 15 29.87 1012 10 16 0.00 0.00
5:53 am 05:53 Mostly Clear 64 17.8 60 15.6 87 87 SSE 7 11 29.86 1011 10 16 0.00 0.00
6:53 am 06:53 Mostly Sunny 66 18.9 61 16.1 84 84 SE 9 15 29.85 1011 10 16 0.00 0.00
7:53 am 07:53 Partly Cloudy 69 20.6 63 17.2 81 81 SE 14 22 29.85 1011 10 16 0.00 0.00
8:53 am 08:53 Mostly Sunny 72 22.2 65 18.3 79 79 SSE 17 28 29.86 1011 10 16 0.00 0.00
9:53 am 09:53 Sunny 76 24.4 65 18.3 69 69 SE 16 26 29.85 1011 10 16 0.00 0.00
10:50 am 10:50 Mostly Cloudy 77 25 66 19 69 69 SSE 17 28 29.80 1009 10 16 0.00 0.00
10:53 am 10:53 Mostly Cloudy 77 25 67 19.4 71 71 SSE 21 33 29.86 1011 10 16 0.00 0.00
11:34 am 11:34 Cloudy 77 25 67 19.4 71 71 S 14 22 29.83 1010 10 16 0.00 0.00
11:53 am 11:53 Cloudy 77 25 67 19.4 71 71 SSE 14 22 29.86 1011 10 16 0.00 0.00
12:53 pm 12:53 Sunny 83 28.3 68 20 61 61 S 17 28 29.85 1011 10 16 0.00 0.00
1:53 pm 13:53 Sunny 85 29.4 67 19.4 55 55 S 18 30 29.85 1011 10 16 0.00 0.00
2:53 pm 14:53 Mostly Cloudy 83 28.3 68 20 61 61 SSE 14 22 29.85 1011 10 16 0.00 0.00
3:53 pm 15:53 Mostly Sunny 86 30 68 20 55 55 S 15 24 29.84 1011 10 16 0.00 0.00
4:53 pm 16:53 Sunny 86 30 69 20.6 57 57 S 15 24 29.84 1011 10 16 0.00 0.00
5:53 pm 17:53 Sunny 83 28.3 69 20.6 63 63 SSE 16 26 29.84 1011 10 16 0.00 0.00
6:53 pm 18:53 Sunny 84 28.9 70 21.1 63 63 SSE 13 20 29.83 1010 10 16 0.00 0.00
7:53 pm 19:53 Sunny 82 27.8 70 21.1 67 67 SSE 13 20 29.83 1010 10 16 0.00 0.00
8:53 pm 20:53 Sunny 79 26.1 70 21.1 74 74 SSE 13 20 29.84 1011 10 16 0.00 0.00
9:53 pm 21:53 Clear 76 24.4 70 21.1 82 82 SSE 8 13 29.86 1011 10 16 0.00 0.00
10:53 pm 22:53 Clear 75 23.9 70 21.1 84 84 SSE 10 17 29.89 1012 10 16 0.00 0.00
11:53 pm 23:53 Clear 73 22.8 69 20.6 87 87 SSE 9 15 29.89 1012 10 16 0.00 0.00

Powered by AerisWeather